Location: Bacharowice
(49.9333°N, 19.5833°E)
Time: 23:42:07
(UTC+00:00)

SL-8 Rocket - Pass Details

Date: 11 May 2021
Orbit: 957 x 990 km, 82.9° (Epoch: 21 June)

Event Time Altitude Azimuth Distance (km) Brightness Sun altitude
Rises 20:44:57 0° 353° (N) 3,718 8.4 -17.5°
Reaches altitude 10° 20:47:35 10° 358° (N) 2,765 7.4 -17.7°
Maximum altitude 20:53:45 51° 74° (ENE) 1,235 4.4 -18.2°
Enters shadow 20:56:53 28° 135° (SE) 1,763 4.8 -18.4°
